SPACEMOBILE-SSR01 DEB, 62369

Orbit data source: Space-Track

SPACEMOBILE-SSR01 DEB, 62369 is space debris in LEO originally from a launch on Thu, 12 Sep 2024 UTC launched from the Air Force Eastern Test Range (AFETR). Debris objects in space refer to the collection of defunct objects orbiting the Earth. Examples of debris include non-operational satellites, rocket bodies, and fragments generated from explosions, collisions, or faulty payload assembly.

Loading next visibility...
Identifier
62369, 2024-163F
Orbit
LEO
Country
Flag of USUS
Related business
Manufacturer
AST & Science
Mission
Spacecraft
Bus & Motor
BW3 LVA, Unknown motor
Mass
150 kg wet, 150 kg dry
Launch date (UTC)
2024-09-12 (2 years ago)
Launch vehicle
Unknown
Launch site
Air Force Eastern Test Range (AFETR)
Object type
Payload
Rocket body
Debris
Shape & HBR
Cyl, 3.8 m
Radar Cross Section
1.963 m², Large (>1 m²)

Expand to show TLE details & history
Last TLE update: 8 hours ago

TLE from 8 hours ago
0 SPACEMOBILE-SSR01 DEB
1 62369U 24163F   26227.54870580  .00004828  00000-0  14704-3 0  9999
2 62369  52.9951   0.1099 0007586   2.6744 357.4297 15.35871322 95623
Epoch: 2026-08-15T13:10Z
TLE epoch observation values (Epoch: 2026-08-15T13:10:08.181Z)
Latitude
0.00005°
Longitude
-161.38214°
Altitude
454.037 km
Speed
7.644 km/s
True Right ascension
00h 00m 26s
True Declination
0° 00' 00"
Sunlit
Object was in full shadow at epoch
Visualization orbit readout
Latitude
Unknown
Longitude
Unknown
Altitude
Unknown
Speed
Unknown
Apparent Right ascension
Unknown
Apparent Declination
Unknown
Sunlit
N/A
Visualization observer readout
Local Sidereal Time
12:10:38
Azimuth
Unknown
Elevation
Unknown
Doppler factor
Unknown
Orbital elements
Apogee altitude
463.804 km
Perigee altitude
453.431 km
Semi-major axis
6,836.754 km
Eccentricity
0.00076
Inclination
52.9951°
RAAN
0.1099°
Arg. of periapsis
2.6744°
True anomaly
357.4258°
Mean anomaly
357.4297°
Eccentric anomaly
357.42775°
Mean motion
3.83944 °/min
Orbital period
93.76 mins
BSTAR
0.00014704
Loading maneuver chart data...
Computing Atmospheric mass density...
Loading historical data...
Loading historical data...
Loading historical data...
Loading historical data...
Loading historical data...
Loading historical data...
Loading historical data...

Documentation

Showing up to 5 results
|